THORAD DELTA 1 DEB, 8594

Orbit data source: Space-Track

THORAD DELTA 1 DEB, 8594 is space debris in SSO originally from a launch on Fri, 15 Nov 1974 UTC launched from the Air Force Western Test Range (AFWTR). Debris objects in space refer to the collection of defunct objects orbiting the Earth. Examples of debris include non-operational satellites, rocket bodies, and fragments generated from explosions, collisions, or faulty payload assembly.

Loading next visibility...
Identifier
8594, 1974-089DH
Orbit
SSO
Country
Flag of USUS
Related business
Manufacturer
Unknown
Mission
Spacecraft
Bus & Motor
Unknown
Mass
Unknown
Launch date (UTC)
1974-11-15 (52 years ago)
Launch vehicle
Unknown
Launch site
Air Force Western Test Range (AFWTR)
Object type
Payload
Rocket body
Debris
Shape & HBR
Unknown shape, 0.1 m
Radar Cross Section
Medium (>0.1 m² and <1 m²)

Expand to show TLE details & history
Last TLE update: 1 day ago

TLE from 1 day ago
0 THORAD DELTA 1 DEB
1 08594U 74089DH  26174.71255905  .00000044  00000-0  42641-3 0  9996
2 08594 101.7627 146.5409 0131775  56.1607 123.8552 12.73203088394376
Epoch: 2026-06-23T17:06Z
TLE epoch observation values (Epoch: 2026-06-23T17:06:05.101Z)
Latitude
-1.34504°
Longitude
157.86071°
Altitude
1,429.508 km
Speed
7.12 km/s
True Right ascension
21h 45m 02s
True Declination
-1° 20' 16"
Sunlit
Object was in daylight at epoch
Visualization orbit readout
Latitude
Unknown
Longitude
Unknown
Altitude
Unknown
Speed
Unknown
Apparent Right ascension
Unknown
Apparent Declination
Unknown
Sunlit
N/A
Visualization observer readout
Local Sidereal Time
09:41:58
Azimuth
Unknown
Elevation
Unknown
Doppler factor
Unknown
Orbital elements
Apogee altitude
1,468.49 km
Perigee altitude
1,264.382 km
Semi-major axis
7,744.573 km
Eccentricity
0.01318
Inclination
101.7627°
RAAN
146.5409°
Arg. of periapsis
56.1607°
True anomaly
125.0977°
Mean anomaly
123.8552°
Eccentric anomaly
124.47759°
Mean motion
3.18454 °/min
Orbital period
113.05 mins
BSTAR
0.00042641
Loading maneuver chart data...
Computing Atmospheric mass density...

Documentation

Showing up to 5 results
|